Regional Weather Roundup
Issued by NWS

Home | Current Version | Previous Version | Graphics & Text | Print | Product List | Glossary On
Versions: 1 2 3 4 5 6 7 8 9 10 11 12 13 14 15 16 17 18 19 20 21 22 23 24 25 26 27 28 29 30 31 32 33 34 35 36 37 38 39 40 41 42 43 44 45 46 47 48 49 50
000
ASUS43 KDMX 280603
RWRIA

WEATHER ROUNDUP FOR IOWA
NATIONAL WEATHER SERVICE DES MOINES IA
100 AM CDT SUN AUG 28 2016

NOTE: "FAIR" INDICATES FEW OR NO CLOUDS BELOW 12,000 FEET WITH NO
SIGNIFICANT WEATHER AND/OR OBSTRUCTIONS TO VISIBILITY.

* - THESE STATIONS ARE NOT NWS STATIONS...THUS NOT UNDER NWS
QUALITY CONTROL.  THEY ALSO DO NOT REPORT WEATHER SUCH
AS PRECIPITATION OR FOG.

IAZ001>003-012>014-020>022-031>034-043>046-280700-
   NORTHWEST IOWA

CITY           SKY/WX    TMP DP  RH WIND       PRES   REMARKS
CARROLL *        N/A     63  63 100 CALM      30.09R FOG
CHEROKEE *       N/A     62  62 100 CALM      30.08S
DENISON *      FOG       68  66  94 CALM      30.06S VSB 3/4
LE MARS *        N/A     66  63  88 CALM      30.07S
ORANGE CITY *    N/A     63  63 100 CALM      30.07S
SHELDON *        N/A     61  61 100 SE6       30.06S
SIOUX CITY       N/A     67  63  87 E7        30.05S
6HR MIN TEMP:  65; 6HR MAX TEMP:  78;

SPENCER          N/A     57  56  96 CALM      30.09S FOG
6HR MIN TEMP:  58; 6HR MAX TEMP:  73;

STORM LAKE *     N/A     64  64 100 S5        30.10R FOG
$$

IAZ055>058-069>071-079>083-090>094-280700-
   SOUTHWEST IOWA

CITY           SKY/WX    TMP DP  RH WIND       PRES   REMARKS
ATLANTIC *       N/A     63  63 100 CALM      30.09S
AUDUBON *      CLOUDY    61  57  88 CALM      30.10S
CLARINDA *       N/A     66  66 100 MISG      30.10S
COUNCIL BLFS * PTCLDY    70  68  94 SE6       30.07S
CRESTON *      PTCLDY    68  66  94 E3        30.12R
HARLAN  *        N/A     63  63 100 CALM      30.11S FOG
LAMONI         CLEAR     70  69  97 NE5       30.09S
6HR MIN TEMP:  68; 6HR MAX TEMP:  81;

RED OAK *      CLEAR     66  64  94 CALM      30.08S
SHENANDOAH *   PTCLDY    66 N/A N/A CALM      30.08S
$$

IAZ047>049-059>061-072>074-084-280700-
   CENTRAL IOWA

CITY           SKY/WX    TMP DP  RH WIND       PRES   REMARKS
AMES           FOG       62  62 100 CALM      30.10R VSB 1/4
6HR MIN TEMP:  60; 6HR MAX TEMP:  71;

ANKENY *         N/A    N/A N/A N/A MISG        N/A
BOONE *          N/A     64  64 100 SE5       30.09S FOG
CHARITON *       N/A     68  66  94 MISG      30.10R
DES MOINES       N/A     70  68  93 CALM      30.09R
6HR MIN TEMP:  70; 6HR MAX TEMP:  81;

GRINNELL*        N/A     67  65  96 E5        30.11S
KNOXVILLE *      N/A     68  66  94 CALM      30.08S
MARSHALLTOWN   MOCLDY    64  64 100 E5        30.10R
6HR MIN TEMP:  63; 6HR MAX TEMP:  77;

NEWTON *         N/A     66  66 100 E7        30.10R
PELLA *          N/A     66  65  95 CALM      30.11R FOG
PERRY *          N/A     66  66 100 SE5       30.09S FOG
$$

IAZ004>006-015-016-023>025-035-036-280700-
   NORTH CENTRAL IOWA

CITY           SKY/WX    TMP DP  RH WIND       PRES   REMARKS
ALGONA *         N/A     63  63 100 S3        30.09S
ESTHERVILLE    FOG       56  56 100 CALM      30.09S VSB 3/4
6HR MIN TEMP:  56; 6HR MAX TEMP:  68;

FORT DODGE *     N/A     64  63  94 CALM      30.10S
MASON CITY     FOG       59  59 100 S6        30.12R VSB 1/4
6HR MIN TEMP:  59; 6HR MAX TEMP:  74;

FOREST CITY *    N/A    N/A N/A N/A MISG        N/A
WEBSTER CITY *   N/A     61  61 100 SE5       30.08S
IOWA FALLS *     N/A     65  64  96 SE5       30.12R
$$

IAZ007>011-017>019-026>030-037>042-050>054-066-280700-
   NORTHEAST IOWA

CITY           SKY/WX    TMP DP  RH WIND       PRES   REMARKS
CEDAR RAPIDS     N/A     68  68 100 E7        30.11R
6HR MIN TEMP:  68; 6HR MAX TEMP:  78;

CHARLES CITY * FOG       63  63 100 SE5       30.12R VSB 1/4
CLINTON *        N/A     69  68  96 CALM      30.10S
DECORAH *        N/A     64  64 100 SE3       30.10S FOG
DUBUQUE        MOCLDY    65  65 100 CALM      30.13S FOG
6HR MIN TEMP:  65; 6HR MAX TEMP:  76;

MONTICELLO *   MOCLDY    64  64 100 CALM      30.12R
OELWEIN *      CLOUDY    63  63 100 SE3       30.13R
WATERLOO         N/A     63  61  93 CALM      30.10R
6HR MIN TEMP:  62; 6HR MAX TEMP:  76;

$$

IAZ064-065-067-068-078-280700-
   EAST CENTRAL IOWA

CITY           SKY/WX    TMP DP  RH WIND       PRES   REMARKS
DAVENPORT        N/A     68  67  96 CALM      30.10S
6HR MIN TEMP:  68; 6HR MAX TEMP:  80;

IOWA CITY        N/A     69  67  93 CALM      30.12R
6HR MIN TEMP:  69; 6HR MAX TEMP:  82;

MT. PLEASANT * PTCLDY    72  72 100 CALM      30.10S
MUSCATINE *    MOCLDY    70  68  94 W3        30.10R
QUAD CITIES      N/A     71  69  93 CALM      30.09S
6HR MIN TEMP:  71; 6HR MAX TEMP:  83; 6HR PCP:  0.17;

$$

IAZ062-063-075>077-085>089-095>099-280700-
   SOUTHEAST IOWA

CITY           SKY/WX    TMP DP  RH WIND       PRES   REMARKS
BURLINGTON     CLEAR     73  73 100 CALM      30.10R
6HR MIN TEMP:  71; 6HR MAX TEMP:  82;

FAIRFIELD *    PTCLDY    70  68  94 CALM      30.10R
FORT MADISON * CLEAR     72  72 100 CALM      30.11R
KEOKUK *       CLEAR     73  72  94 CALM      30.09R
OSKALOOSA *      N/A     67  66  97 E5        30.10S
CENTERVILLE *  MOCLDY    72  70  94 CALM      30.12R
OTTUMWA        PTCLDY    68  66  93 E3        30.10R
6HR MIN TEMP:  68; 6HR MAX TEMP:  80;

WASHINGTON *     N/A     70  68  94 NE3       30.12R
$$

ABBREVIATIONS USED IN REMARKS
   TC - TEMPERATURES IN CELSIUS
  WCI - WIND CHILL INDEX
   HX - HEAT INDEX
  VSB - VISIBILITY
$$





USA.gov is the U.S. government's official web portal to all federal, state and local government web resources and services.